This is the latest recevied weather packets stored in our database for station/object JO1YDG-13. If no packets are shown the sender has not sent any weather packets the latest 10 day(s).
| Time | Temp. | Humidity | Pressure | Rain* | Wind** | Luminosity | Snow |
|---|---|---|---|---|---|---|---|
| 1777806322 | 16.11° C | 86% | 978.2 hPa | 0 mm | - | - | - |
| 1777806022 | 16.11° C | 85% | 978.1 hPa | 0 mm | - | - | - |
| 1777805721 | 16.67° C | 84% | 978.1 hPa | 0 mm | - | - | - |
| 1777805421 | 16.67° C | 84% | 978.3 hPa | 0 mm | - | - | - |
| 1777805121 | 16.67° C | 83% | 978.4 hPa | 0 mm | - | - | - |
| 1777804821 | 16.67° C | 82% | 978.4 hPa | 0 mm | - | - | - |
| 1777804521 | 17.22° C | 80% | 978.3 hPa | 0 mm | - | - | - |
| 1777804222 | 17.22° C | 78% | 978.3 hPa | 0 mm | - | - | - |
| 1777803922 | 17.22° C | 78% | 977.8 hPa | 0 mm | - | - | - |
| 1777803622 | 17.22° C | 77% | 977.8 hPa | 0 mm | - | - | - |
| 1777803322 | 17.78° C | 75% | 977.8 hPa | 0 mm | - | - | - |
| 1777803021 | 17.78° C | 74% | 977.8 hPa | 0 mm | - | - | - |
| 1777802721 | 17.78° C | 72% | 977.8 hPa | 0 mm | - | - | - |
| 1777802421 | 18.33° C | 71% | 977.6 hPa | 0 mm | - | - | - |
| 1777802121 | 18.89° C | 67% | 977.6 hPa | 0 mm | - | - | - |
| 1777801820 | 18.89° C | 64% | 977.8 hPa | 0 mm | - | - | - |
| 1777801522 | 18.89° C | 64% | 977.9 hPa | 0 mm | - | - | - |
| 1777801222 | 19.44° C | 63% | 977.9 hPa | 0 mm | - | - | - |
| 1777800922 | 19.44° C | 62% | 977.7 hPa | 0 mm | - | - | - |
| 1777800622 | 19.44° C | 60% | 977.7 hPa | 0 mm | - | - | - |
| 1777800321 | 19.44° C | 59% | 977.8 hPa | 0 mm | - | - | - |
| 1777800021 | 20° C | 56% | 977.8 hPa | 0 mm | - | - | - |
| 1777799721 | 20.56° C | 50% | 977.8 hPa | 0 mm | - | - | - |
| 1777799421 | 21.11° C | 47% | 977.7 hPa | 0 mm | - | - | - |
| 1777799121 | 21.11° C | 46% | 977.7 hPa | 0 mm | - | - | - |
* Rain latest hour (hover to see other rain measurements)
** Current wind speed in m/s (hover to see current wind gust speed)